Regional Weather Roundup
Issued by NWS Upton, NY

Current Version | Previous Version | Text Only | Print | Product List | Glossary On
Versions: 1 2 3 4 5 6 7 8 9 10 11 12 13 14 15 16 17 18 19 20 21 22 23 24 25 26 27
000
ASUS41 KOKX 160708
RWROKX

REGIONAL WEATHER ROUNDUP
NATIONAL WEATHER SERVICE NEW YORK NY
200 AM EST MON JAN 16 2017

NOTE: "FAIR" INDICATES FEW OR NO CLOUDS BELOW 12,000 FEET WITH NO
SIGNIFICANT WEATHER AND/OR OBSTRUCTIONS TO VISIBILITY.

NYZ071-072-176-178-NJZ106-104-160800-
NEW YORK CITY METRO AREA

CITY           SKY/WX    TMP DP  RH WIND       PRES   REMARKS
Central Park   CLEAR     31  20  63 NW3       30.45R
Wall St Helipt SUNNY     33  23  66 CALM      30.45R
Bronx Bot Gard NOT AVBL
LaGuardia APRT CLEAR     34  21  59 N6        30.44R WCI  29
Kennedy INTL   PTCLDY    31  18  58 N5        30.45R WCI  26
Breezy Point     N/A    N/A N/A N/A N2          N/A
Newark/Liberty CLEAR     29  18  63 N8        30.45R WCI  21
Teterboro      CLEAR     29  19  66 N3        30.44R
$$

NYZ177-179-078>081-160800-
LONG ISLAND NEW YORK

CITY           SKY/WX    TMP DP  RH WIND       PRES   REMARKS
Jones Beach      N/A    N/A N/A N/A N7          N/A
Matinecock PT  NOT AVBL
Farmingdale    CLEAR     26  21  81 N6        30.44R WCI  19
MacArthur/ISP  CLEAR     25  20  81 N3        30.43R
Shirley        CLEAR     26  18  71 N3        30.44R
Westhampton    CLEAR     14  10  84 N7        30.45R WCI   4
Southampton    NOT AVBL
Bridgehampton  NOT AVBL
East Hampton     N/A     18  16  91 CALM      30.43R
Montauk          N/A     34  23  64 N5        30.43R WCI  30
$$

NYZ052-065-067-160800-
HUDSON VALLEY

CITY           SKY/WX    TMP DP  RH WIND       PRES   REMARKS
White Plains   CLEAR     24  16  71 N3        30.41R
Newburgh       NOT AVBL
Montgomery     CLEAR     19  16  88 CALM      30.42R
Poughkeepsie   CLEAR     18  15  88 CALM      30.44R
Albany         CLEAR     18  12  77 CALM      30.43S
$$

NJZ001-105-106-008-010-013-015-019>022-104-160800-
NEW JERSEY

CITY           SKY/WX    TMP DP  RH WIND       PRES   REMARKS
Newark/Liberty CLEAR     29  18  63 N8        30.45R WCI  21
Teterboro      CLEAR     29  19  66 N3        30.44R
Caldwell       CLEAR     22  18  85 CALM      30.45R
Somerville     CLOUDY    18  14  84 CALM      30.43R
Linden           N/A     27  19  72 CALM      30.45R
Sussex         CLEAR     16  13  88 CALM      30.42R
Andover          N/A     16  14  92 CALM      30.43R
Trenton        PTCLDY    26  19  74 CALM      30.43R
Millville      CLEAR     22  22 100 CALM      30.45R
Atlantic City  CLEAR     26  19  74 NW5       30.44R WCI  20
Wrightstown    CLEAR     25  19  77 NW3       30.41R
Toms River     CLEAR     19  17  92 CALM      30.45R
Belmar         CLOUDY    25  20  81 NW3       30.44R
$$

PAZ047>061-062-071-160800-
EASTERN PENNSYLVANIA

CITY           SKY/WX    TMP DP  RH WIND       PRES   REMARKS
Philadelphia   PTCLDY    29  19  66 NW3       30.46R
Allentown      PTCLDY    20  15  81 W3        30.44R
Scranton       CLOUDY    16  13  88 E6        30.40S WCI   7
$$

CTZ002-004>006-009-010-012-RIZ004-006-007-MAZ004-011-015-160800-
SOUTHERN NEW ENGLAND
 IN CT

CITY           SKY/WX    TMP DP  RH WIND       PRES   REMARKS
Bradley INTL   CLEAR     20  14  77 CALM      30.43R
Hartford       CLEAR     20  18  92 CALM      30.45R
Danbury        CLEAR     16  13  88 CALM      30.44R
Wtrbury/Oxford CLEAR     21  12  68 N6        30.41R WCI  14
Bridgeport     CLEAR     25  18  74 NW3       30.45R
Meriden        CLEAR     20  15  81 CALM      30.45R
New Haven      CLEAR     21  16  81 CALM      30.44R
Chester          N/A     27  14  59 N7        30.42R WCI  19
Groton         CLEAR     19  15  84 N7        30.44R WCI  10
Wilimantic     CLEAR     19  16  88 CALM      30.45R

 IN RI

CITY           SKY/WX    TMP DP  RH WIND       PRES   REMARKS
Providence     CLEAR     22  16  78 NW3       30.44R
Block Island   NOT AVBL
Westerly       CLEAR     19  15  84 CALM      30.44R
 IN MA

CITY           SKY/WX    TMP DP  RH WIND       PRES   REMARKS
Boston         CLEAR     26  11  52 NW6       30.45R WCI  19
Worcester      CLEAR     20   9  62 CALM      30.37R
Westfield      CLEAR     17  14  88 CALM      30.42R
Provincetown   CLEAR     32  17  54 N5        30.43R WCI  27
Nantucket      CLEAR     24  15  68 CALM      30.42R
$$

ANZ330-335-338-340-345-350-353-355-160800-
COASTAL MARINE OBSERVATIONS


STATION/POSITION TIME  SKY/WX   TEMP    WIND        PRES    VSBY  WAVE
                                AIR SEA DIR/SP/G                  HT/PER
                 (UTC)          (F)     (DEG/KT/KT) (MB)    (MI)  (FT/S)
NY HARB ENTRANCE 0550            36 44  360/  8/ 10 1030.0          1/11
20 S FIRE ISLAND 0650            37 45   10/ 10/ 12 1030.0          2/10
GREAT SOUTH BAY  NOT AVBL
23 SSW MONTAUK P 0550            38 47  340/  4/  6 1030.0          1/11
15 E BARNEGAT LI 0630               44                N/A           2/11
HUDSON CANYON    0550            42 53              1029.6          2/10
KINGS POINT      0642                               1030.5
EXECUTION ROCKS  0645            32     350/  6/  8   N/A
CENTRAL LI SOUND 0630            33     360/ 12/ 14   N/A           1
EASTERN LI SOUND NOT AVBL
ROBBINS REEF     0642                   330/  7/  9 1030.8
$$


>>>>>>>>>>>>>>>>>>>>>>>>>>>> KEY <<<<<<<<<<<<<<<<<<<<<<<<<<<
>                                                          <
>     SKY/WX - Sky Condition/Present Weather               <
>     TMP    - Temperature in Fahrenheit                   <
>     DP     - Dew Point in Fahrenheit                     <
>     RH     - Relative Humidity in Percent                <
>     WIND   - Direction (from) and Speed in MPH           <
>     PRES   - Mean Sea Level Pressure (inches of Hg)      <
>     WCI    - Wind Chill Index                            <
>     VSB    - VISIBILITY IN MILES                         <
>     HX     - HEAT INDEX                                  <
>     TC     - TEMPERATURE IN CELSIUS                      <
>     VRB    - VARIABLE WIND DIRECTION                     <
>                                                          <
>>>>>>>>>>>>>>>>>>>>>>>>>>>> KEY <<<<<<<<<<<<<<<<<<<<<<<<<<<




USA.gov is the U.S. government's official web portal to all federal, state and local government web resources and services.